CW9703 Weather Reports


Display with metric or nautical units.
time (UTC)temp
F
wind
direction
speed
MPH
gust
MPH
rain 1hr
in
rain 24hr
in
rain mn
in
humidity
%
barometer
mb
20170526181435 58 111 6.0 7.0 0.00 0.12 0.04 89 1010.3
20170526173035 61 288 3.0 5.0 0.00 0.12 0.04 84 1010.5
20170526170834 61 294 1.0 3.0 0.00 0.12 0.04 85 1010.2
20170526164634 60 282 2.0 3.0 0.00 0.12 0.04 88 1010.2
20170526162434 61 338 2.0 4.0 0.00 0.12 0.04 87 1010.1
20170526160233 61 348 0.0 3.0 0.00 0.12 0.04 89 1009.9
20170526154033 60 29 3.0 5.0 0.00 0.12 0.04 92 1009.7
20170526151805 58 273 0.0 3.0 0.00 0.12 0.04 96 1009.7
20170526145600 58 323 0.0 3.0 0.00 0.12 0.04 95 1009.9
20170526134959 56 321 2.0 3.0 0.00 0.12 0.04 98 1009.2
20170526132759 55 316 0.0 3.0 0.00 0.12 0.04 98 1009.2
20170526130558 55 329 1.0 4.0 0.00 0.12 0.04 98 1009.1
20170526124358 55 308 1.0 3.0 0.00 0.20 0.04 98 1009.0
20170526122158 55 314 2.0 3.0 0.04 0.20 0.04 98 1008.7
20170526115957 54 360 0.0 3.0 0.04 0.20 0.04 98 1008.6
20170526113757 54 297 1.0 3.0 0.04 0.20 0.04 98 1008.5
20170526111557 54 311 0.0 2.0 0.00 0.16 0.00 98 1008.2
20170526103156 54 321 2.0 3.0 0.00 0.16 0.00 98 1007.6
20170526094756 54 319 3.0 3.0 0.00 0.16 0.00 98 1006.9
20170526092555 54 312 2.0 3.0 0.00 0.16 0.00 98 1006.7
20170526075754 54 335 0.0 3.0 0.00 0.17 0.00 98 1006.1
20170526071353 53 70 0.0 2.0 0.00 0.18 0.00 98 1005.5
20170526063006 53 9 1.0 2.0 0.00 0.18 0.00 98 1005.3
20170526050152 53 355 0.0 2.0 0.00 0.19 0.00 98 1004.8
20170526043951 53 283 0.0 2.0 0.00 0.20 0.00 98 1004.9
20170526041751 53 340 0.0 1.0 0.00 0.22 0.00 98 1004.8
20170526035551 53 33 1.0 2.0 0.00 0.26 0.22 98 1004.8
20170526024950 52 343 0.0 3.0 0.00 0.27 0.22 98 1004.2
20170526022750 52 350 0.0 3.0 0.00 0.27 0.22 98 1004.0
20170526020550 52 344 0.0 1.0 0.00 0.27 0.22 98 1003.8
20170526012149 51 339 0.0 3.0 0.01 0.27 0.22 98 1003.4
20170525235348 51 13 1.0 1.0 0.02 0.26 0.21 97 1002.3
20170525214146 53 17 1.0 3.0 0.02 0.23 0.18 97 1001.4
20170525211946 53 60 0.0 3.0 0.02 0.22 0.17 97 1001.3
20170525205746 53 345 0.0 2.0 0.01 0.21 0.16 97 1001.2
20170525203550 53 5 0.0 3.0 0.01 0.21 0.16 97 1000.9
20170525201344 53 30 0.0 3.0 0.01 0.21 0.16 97 1001.0
20170525190744 53 53 0.0 4.0 0.01 0.20 0.15 97 1000.7